Regional Weather Roundup
Issued by NWS State College, PA

Home | Current Version | Previous Version | Graphics & Text | Print | Product List | Glossary On
Versions: 1 2 3 4 5 6 7 8 9 10 11 12 13 14 15 16 17 18 19 20 21 22 23 24 25 26 27 28 29 30 31 32 33 34 35 36 37 38 39 40 41 42 43 44 45 46 47 48 49 50
000
ASUS41 KCTP 191203
RWRCTP

REGIONAL WEATHER ROUNDUP
NATIONAL WEATHER SERVICE STATE COLLEGE PA
800 AM EDT SUN APR 19 2015

Note: "fair" indicates few or no clouds below 12,000 feet with no
significant weather and/or obstructions to visibility.

* = STATION THAT DOES NOT REPORT PRECIPITATION /E.G. RAIN...SNOW...ETC/
    THUNDER OR FOG.

PAZ002>004-007>009-013>016-020>023-029>032-191300-
WESTERN PENNSYLVANIA

CITY           SKY/WX    TMP DP  RH WIND       PRES   REMARKS
ERIE           PTSUNNY   44  31  60 E6        30.11S
MEADVILLE      PTSUNNY   49  23  36 E10G18    30.09R
FRANKLIN*      PTSUNNY   46  25  42 E9        30.12R
NEW CASTLE     LGT RAIN  54  30  40 E9G17     30.07S
BEAVER COUNTY  NOT AVBL
BUTLER*        PTSUNNY   52  27  37 E12G22    30.10R
PITTSBURGH INT CLOUDY    55  32  41 E10       30.06R
PITTSBURGH     PTSUNNY   54  28  36 NE6       30.06R
INDIANA*       SUNNY     54  27  35 E9G15     30.14S
LATROBE        PTSUNNY   57  30  35 NE9       30.09R
WASHINGTON CO* PTSUNNY   54  37  54 NE6       30.06S
$$

PAZ004>006-010>012-017>019-024>028-033>037-041-042-045-046-049>053-191300-
CENTRAL PENNSYLVANIA

CITY           SKY/WX    TMP DP  RH WIND       PRES   REMARKS
BRADFORD       PTSUNNY   42  24  49 SE10      30.16R
DUBOIS         PTSUNNY   49  23  36 E12G22    30.13S
CLEARFIELD     PTSUNNY   46  26  45 NE9       30.17S
JOHNSTOWN      CLOUDY    51  24  34 VRB7      30.12R
ALTOONA        CLOUDY    52  27  38 NE5       30.16R
STATE COLLEGE  SUNNY     48  28  46 NE9       30.20R
WILLIAMSPORT   PTSUNNY   46  30  53 N3        30.22R
SELINSGROVE    PTSUNNY   47  38  71 CALM      30.22R
FT INDIANTOWN  PTSUNNY   54  29  39 NE6       30.19S
CAPITAL CITY   PTSUNNY   54  29  38 E8        30.19R
HARRISBURG     CLOUDY    55  27  34 CALM      30.18S
YORK           CLOUDY    52  36  54 E3        30.18R
$$

PAZ038>040-043-044-047-048-054-055-060>062-067>071-191300-
EASTERN PENNSYLVANIA

CITY           SKY/WX    TMP DP  RH WIND       PRES   REMARKS
SCRANTON       MOSUNNY   47  27  45 CALM      30.22R
MOUNT POCONO   MOSUNNY   45  23  42 SE9       30.21R
ALLENTOWN      PTSUNNY   52  29  41 E6        30.23R
QUAKERTOWN*    PTSUNNY   52  27  37 E7        30.23R
READING        PTSUNNY   54  27  35 VRB3      30.20R
LANCASTER      PTSUNNY   52  33  48 NE8       30.18R
COATESVILLE    PTSUNNY   54  27  35 E13G23    30.20R
POTTSTOWN      PTSUNNY   53  26  35 E7        30.23R
BLUE BELL      PTSUNNY   55  28  35 E8        30.21R
DOYLESTOWN     PTSUNNY   52  24  33 VRB5      30.22R
WILLOW GROVE   NOT AVBL
NORTH PHILA    PTSUNNY   56  34  43 E13       30.24R
PHILADELPHIA   PTSUNNY   56  37  49 E10       30.22R
$$



USA.gov is the U.S. government's official web portal to all federal, state and local government web resources and services.